Weather History for Torrington, WY

Change the Weather History Date:

Wednesday, May 8, 2013

  Actual Average Record
Temperature  
Mean Temperature 55 °F 54 °F  
Max Temperature 74 °F 69 °F 88 °F (2011)
Min Temperature 36 °F 40 °F 22 °F (2010)
Degree Days  
Heating Degree Days 10 11  
Month to date heating degree days 149 98  
Since 1 July heating degree days 6366 6330  
Cooling Degree Days 0 0  
Month to date cooling degree days 0 0  
Year to date cooling degree days 0 1  
Growing Degree Days 5 (Base 50)    
Moisture  
Dew Point 37 °F    
Average Humidity 59    
Maximum Humidity 92    
Minimum Humidity 25    
Precipitation  
Precipitation 0.00 in 0.06 in 0.68 in (2003)
Month to date precipitation 0.21 0.57  
Year to date precipitation 1.90 3.58  
Sea Level Pressure  
Sea Level Pressure 29.92 in    
Wind  
Wind Speed 10 mph (NE)    
Max Wind Speed 32 mph    
Max Gust Speed 37 mph    
Visibility 10 miles    
Events Thunderstorm    
T = Trace of Precipitation, MM = Missing Value Source: NWS Daily Summary

Daily Weather History Graph

Daily Weather History Graph

Search for Another Location

Airport:

Trip Planner

Search our weather history database for the weather conditions in past years. The results will help you decide how hot, cold, wet, or windy it might be!

Date:

Astronomy

May. 08, 2013 Rise Set
Actual Time 5:43 AM MDT 8:03 PM MDT
Civil Twilight 5:12 AM MDT 8:34 PM MDT
Nautical Twilight 4:33 AM MDT 9:13 PM MDT
Astronomical Twilight 3:50 AM MDT 9:56 PM MDT
Moon 4:54 AM MDT (5/8) 7:03 PM MDT (5/8)
Length of Visible Light 15h 22m
Length of Day
14h 20m
Waning Crescent, 2% of the Moon is Illuminated
May 8
Waning Crescent
May 9
New
May 17
First Quarter
May 24
Full
May 31
Last Quarter

Hourly Weather History & Observations

Time (MDT) Temp. Windchill Dew Point Humidity Pressure Visibility Wind Dir Wind Speed Gust Speed Precip Events Conditions
12:53 AM 44.1 °F 40.8 °F 39.0 °F 82% 29.86 in 10.0 mi ENE 5.8 mph - N/A   Clear
1:53 AM 43.0 °F 39.5 °F 39.0 °F 86% 29.86 in 10.0 mi ESE 5.8 mph - N/A   Clear
2:53 AM 44.1 °F - 39.0 °F 82% 29.85 in 10.0 mi Calm Calm - N/A   Clear
3:53 AM 39.9 °F 36.7 °F 37.9 °F 93% 29.87 in 10.0 mi ENE 4.6 mph - N/A   Clear
4:53 AM 39.9 °F 36.7 °F 37.9 °F 93% 29.87 in 10.0 mi NNE 4.6 mph - N/A   Clear
5:53 AM 37.0 °F 34.5 °F 36.0 °F 96% 29.90 in 10.0 mi WNW 3.5 mph - N/A   Clear
6:53 AM 41.0 °F 39.0 °F 37.9 °F 89% 29.90 in 10.0 mi WNW 3.5 mph - N/A   Clear
7:53 AM 46.9 °F - 41.0 °F 80% 29.91 in 10.0 mi Calm Calm - N/A   Clear
8:53 AM 55.9 °F - 43.0 °F 62% 29.90 in 10.0 mi NW 5.8 mph - N/A   Clear
9:53 AM 63.0 °F - 39.9 °F 43% 29.90 in 10.0 mi NNE 4.6 mph - N/A   Clear
10:53 AM 66.9 °F - 42.1 °F 40% 29.91 in 10.0 mi ESE 6.9 mph - N/A   Partly Cloudy
11:53 AM 66.0 °F - 42.1 °F 42% 29.91 in 10.0 mi SSE 9.2 mph - N/A   Mostly Cloudy
12:53 PM 72.0 °F - 33.1 °F 24% 29.89 in 10.0 mi NE 13.8 mph - N/A   Scattered Clouds
1:23 PM 73.4 °F - 33.8 °F 23% 29.96 in 10.0 mi NE 18.4 mph 24.2 mph N/A Thunderstorm Partly Cloudy
1:38 PM 71.6 °F - 33.8 °F 25% 29.97 in 10.0 mi NE 11.5 mph - N/A   Partly Cloudy
1:53 PM 71.1 °F - 34.0 °F 26% 29.89 in 10.0 mi NNE 12.7 mph 19.6 mph N/A   Scattered Clouds
2:53 PM 71.1 °F - 37.0 °F 29% 29.89 in 10.0 mi ENE 24.2 mph - N/A   Mostly Cloudy
3:53 PM 70.0 °F - 36.0 °F 29% 29.91 in 10.0 mi ENE 25.3 mph 36.8 mph N/A   Clear
4:53 PM 70.0 °F - 36.0 °F 29% 29.91 in 10.0 mi ENE 26.5 mph 32.2 mph N/A   Clear
5:53 PM 69.1 °F - 37.0 °F 31% 29.94 in 10.0 mi NE 21.9 mph - N/A   Clear
6:53 PM 66.9 °F - 33.1 °F 28% 29.95 in 10.0 mi NE 20.7 mph - N/A   Clear
7:53 PM 62.1 °F - 33.1 °F 34% 29.97 in 10.0 mi NE 15.0 mph - N/A   Clear
8:53 PM 55.0 °F - 34.0 °F 45% 30.00 in 10.0 mi NE 11.5 mph - N/A   Clear
9:53 PM 50.0 °F - 36.0 °F 59% 30.00 in 10.0 mi NE 9.2 mph - N/A   Scattered Clouds
10:53 PM 48.0 °F - 36.0 °F 63% 30.00 in 10.0 mi ENE 9.2 mph - N/A   Clear
11:53 PM 46.0 °F 41.4 °F 36.0 °F 68% 30.02 in 10.0 mi NE 9.2 mph - N/A   Clear